SIRIUSSAT-2 (43596 NORAD) Tracking and Keplerian Element Data

This shows tracking and keplerian element data for the satellite.

Feedback or suggestion? Click here.




ElementValue
Catalog43596
NameSIRIUSSAT-2
Epoch Orbit1381
Epoch Day316.50092641
Epoch Year2018
RAAN358.8553
Inclination51.6407
Eccentricity0.0004973
Argument of Perigee16.7622
Mean Anonmoly343.3533
Mean Motion15.55937939
Decay Rate9.701E-05
L11 43596U 98067PH 18316.50092641 .00009701 00000-0 14385-3 0 9994
L22 43596 51.6407 358.8553 0004973 16.7622 343.3533 15.55937939 13819

Live tracking and technical data element details for SIRIUSSAT-2 (NORAD 43596). SIRIUSSAT-2 can be tracked NOW for your location showing map with azimuth and elevation plus other details from your city location.

Track the satellite on the map from your city or location and see movement details for azimuth, elevation, latitude, longitude, range, height, and movement on the map or in text.







IsCatalogInMostPopularTable: catalog: 43596, numindb: 35
Update: records affected: 1



GetName: 43596 SIRIUSSAT-2

Hit Count: updated at: Tue, 13 Nov 2018 06:31:49 GMT